This is the latest recevied weather packets stored in our database for station/object ke5jzm-1. If no packets are shown the sender has not sent any weather packets the latest 10 day(s).
| Time | Temp. | Humidity | Pressure | Rain* | Wind** | Luminosity | Snow |
|---|---|---|---|---|---|---|---|
| 1778282833 | 24.44° C | 62% | 1012.2 hPa | 7.87 mm | - | 14 W/m² | - |
| 1778282772 | 24.44° C | 62% | 1012.2 hPa | 8.13 mm | - | 15 W/m² | - |
| 1778282713 | 24.44° C | 62% | 1012.3 hPa | 8.13 mm | - | 16 W/m² | - |
| 1778282652 | 24.44° C | 62% | 1012.3 hPa | 8.13 mm | - | 16 W/m² | - |
| 1778282593 | 24.44° C | 62% | 1012.3 hPa | 8.13 mm | - | 15 W/m² | - |
| 1778282555 | 24.44° C | 62% | 1012.3 hPa | 8.13 mm | - | 15 W/m² | - |
| 1778282472 | 24.44° C | 62% | 1012.3 hPa | 8.13 mm | - | 18 W/m² | - |
| 1778282413 | 24.44° C | 62% | 1012.2 hPa | 8.13 mm | - | 20 W/m² | - |
| 1778282353 | 24.44° C | 62% | 1012.3 hPa | 8.13 mm | - | 20 W/m² | - |
| 1778282293 | 24.44° C | 62% | 1012.2 hPa | 8.13 mm | - | 22 W/m² | - |
| 1778282218 | 24.44° C | 62% | 1012.2 hPa | 8.13 mm | - | 23 W/m² | - |
| 1778282158 | 24.44° C | 62% | 1012.2 hPa | 8.13 mm | - | 26 W/m² | - |
| 1778282099 | 24.44° C | 62% | 1012.2 hPa | 8.13 mm | - | 30 W/m² | - |
| 1778282037 | 24.44° C | 62% | 1012.1 hPa | 8.13 mm | - | 35 W/m² | - |
| 1778281978 | 24.44° C | 62% | 1012.2 hPa | 8.13 mm | - | 37 W/m² | - |
| 1778281918 | 24.44° C | 62% | 1012.2 hPa | 8.13 mm | - | 31 W/m² | - |
| 1778281858 | 24.44° C | 62% | 1012.2 hPa | 8.38 mm | - | 27 W/m² | - |
| 1778281797 | 24.44° C | 62% | 1012.2 hPa | 8.38 mm | - | 29 W/m² | - |
| 1778281738 | 24.44° C | 62% | 1012.2 hPa | 8.64 mm | - | 36 W/m² | - |
| 1778281678 | 24.44° C | 62% | 1012.2 hPa | 8.64 mm | - | 38 W/m² | - |
| 1778281640 | 24.44° C | 62% | 1012.1 hPa | 8.64 mm | - | 37 W/m² | - |
| 1778281558 | 24.44° C | 62% | 1012 hPa | 8.64 mm | - | 37 W/m² | - |
| 1778281499 | 24.44° C | 62% | 1012 hPa | 8.38 mm | - | 37 W/m² | - |
| 1778281437 | 24.44° C | 62% | 1012 hPa | 8.13 mm | - | 37 W/m² | - |
| 1778281379 | 24.44° C | 62% | 1012 hPa | 7.87 mm | - | 37 W/m² | - |
* Rain latest hour (hover to see other rain measurements)
** Current wind speed in m/s (hover to see current wind gust speed)